Weather History for KRWL - October, 2014

Change the Weather History Date:

Sunday, October 5, 2014

  Actual Average Record
Temperature  
Mean Temperature 54 °F 47 °F  
Max Temperature 65 °F 61 °F 78 °F (1993)
Min Temperature 42 °F 33 °F 14 °F (1969)
Degree Days  
Heating Degree Days 11 18  
Month to date heating degree days 91 84  
Since 1 July heating degree days 412 470  
Cooling Degree Days 0 0  
Month to date cooling degree days 0 0  
Year to date cooling degree days 211 186  
Growing Degree Days 3 (Base 50)    
Moisture  
Dew Point 29 °F    
Average Humidity 42    
Maximum Humidity 62    
Minimum Humidity 22    
Precipitation  
Precipitation 0.00 in 0.03 in 0.65 in (1951)
Month to date precipitation 0.00 0.15  
Year to date precipitation 5.78 7.67  
Sea Level Pressure  
Sea Level Pressure 29.97 in    
Wind  
Wind Speed 16 mph (West)    
Max Wind Speed 29 mph    
Max Gust Speed 35 mph    
Visibility 10 miles    
Events      
T = Trace of Precipitation, MM = Missing Value Source: NWS Daily Summary

Daily Weather History Graph

Daily Weather History Graph

Search for Another Location

Airport or City:

Trip Planner

Search our weather history database for the weather conditions in past years. The results will help you decide how hot, cold, wet, or windy it might be!

Date:

Astronomy

Oct. 05, 2014 Rise Set
Actual Time 7:10 AM MDT 6:43 PM MDT
Civil Twilight 6:42 AM MDT 7:11 PM MDT
Nautical Twilight 6:10 AM MDT 7:43 PM MDT
Astronomical Twilight 5:37 AM MDT 8:15 PM MDT
Moon 5:05 PM MDT (10/5) 3:47 AM MDT (10/5)
Length of Visible Light 12h 29m
Length of Day
11h 33m
Waxing Gibbous, 90% of the Moon is Illuminated
Oct 5
Waxing Gibbous
Oct 8
Full
Oct 15
Last Quarter
Oct 23
New
Oct 30
First Quarter

Hourly Weather History & Observations

Time (MDT) Temp. Windchill Dew Point Humidity Pressure Visibility Wind Dir Wind Speed Gust Speed Precip Events Conditions
12:53 AM 46.0 °F 39.9 °F 28.9 °F 51% 29.99 in 10.0 mi WSW 13.8 mph - N/A   Clear
1:53 AM 45.0 °F 39.3 °F 28.9 °F 53% 29.98 in 10.0 mi SW 11.5 mph - N/A   Clear
2:53 AM 43.0 °F 36.4 °F 28.9 °F 58% 29.98 in 10.0 mi SW 12.7 mph - N/A   Clear
3:53 AM 42.1 °F 37.7 °F 28.9 °F 60% 29.99 in 10.0 mi West 6.9 mph - N/A   Clear
4:53 AM 43.0 °F 36.8 °F 28.9 °F 58% 29.99 in 10.0 mi SW 11.5 mph - N/A   Clear
5:53 AM 43.0 °F 35.1 °F 28.9 °F 58% 30.00 in 10.0 mi WSW 17.3 mph 25.3 mph N/A   Clear
6:53 AM 42.1 °F 33.3 °F 30.0 °F 62% 30.00 in 10.0 mi WSW 19.6 mph 25.3 mph N/A   Clear
7:53 AM 44.1 °F 35.9 °F 30.9 °F 60% 30.00 in 10.0 mi WSW 19.6 mph 25.3 mph N/A   Clear
8:53 AM 46.9 °F - 32.0 °F 56% 30.02 in 10.0 mi WSW 17.3 mph 27.6 mph N/A   Clear
9:53 AM 51.1 °F - 32.0 °F 48% 30.02 in 10.0 mi WSW 21.9 mph 28.8 mph N/A   Clear
10:53 AM 55.9 °F - 32.0 °F 40% 30.01 in 10.0 mi West 15.0 mph 24.2 mph N/A   Clear
11:53 AM 59.0 °F - 30.9 °F 35% 30.01 in 10.0 mi West 18.4 mph 27.6 mph N/A   Clear
12:53 PM 61.0 °F - 30.0 °F 31% 30.00 in 10.0 mi WNW 15.0 mph 23.0 mph N/A   Clear
1:53 PM 63.0 °F - 28.9 °F 28% 29.97 in 10.0 mi West 17.3 mph 25.3 mph N/A   Clear
2:53 PM 63.0 °F - 26.1 °F 25% 29.97 in 10.0 mi WNW 15.0 mph 27.6 mph N/A   Clear
3:53 PM 64.9 °F - 26.1 °F 23% 29.94 in 10.0 mi West 16.1 mph 24.2 mph N/A   Clear
4:53 PM 64.0 °F - 25.0 °F 23% 29.93 in 10.0 mi WNW 13.8 mph - N/A   Clear
5:53 PM 63.0 °F - 25.0 °F 24% 29.94 in 10.0 mi West 17.3 mph - N/A   Clear
6:53 PM 60.1 °F - 27.0 °F 28% 29.94 in 10.0 mi West 15.0 mph - N/A   Clear
7:53 PM 60.1 °F - 27.0 °F 28% 29.93 in 10.0 mi West 21.9 mph 32.2 mph N/A   Clear
8:53 PM 57.0 °F - 28.0 °F 33% 29.93 in 10.0 mi West 24.2 mph 32.2 mph N/A   Clear
9:53 PM 55.9 °F - 28.0 °F 34% 29.93 in 10.0 mi West 20.7 mph 29.9 mph N/A   Clear
10:53 PM 52.0 °F - 28.9 °F 41% 29.94 in 10.0 mi West 19.6 mph - N/A   Clear
11:53 PM 50.0 °F - 30.0 °F 46% 29.94 in 10.0 mi West 16.1 mph - N/A   Clear